Time,TemperatureF,DewpointF,PressureIn,WindDirection,WindDirectionDegrees,WindSpeedMPH,WindSpeedGustMPH,Humidity,HourlyPrecipIn,Conditions,Clouds,dailyrainin,SoftwareType,DateUTC
2013-04-21 00:01:00,53.0,43.0,29.94,SW,217,0.0,-999.0,69,-99.99,,,-99.99,,2013-04-21 07:01:00,
2013-04-21 00:11:00,53.0,43.0,29.94,SW,217,0.0,-999.0,70,-99.99,,,-99.99,,2013-04-21 07:11:00,
2013-04-21 00:21:00,53.0,43.0,29.94,SW,217,0.0,-999.0,70,-99.99,,,-99.99,,2013-04-21 07:21:00,
2013-04-21 00:31:00,53.0,43.0,29.94,SW,217,0.0,-999.0,70,-99.99,,,-99.99,,2013-04-21 07:31:00,
2013-04-21 00:41:00,53.0,43.0,29.94,SW,217,0.0,-999.0,70,-99.99,,,-99.99,,2013-04-21 07:41:00,
2013-04-21 00:52:00,52.0,43.0,29.94,SW,217,0.0,-999.0,71,-99.99,,,-99.99,,2013-04-21 07:52:00,
2013-04-21 01:01:00,52.0,43.0,29.94,SW,217,0.0,-999.0,72,-99.99,,,-99.99,,2013-04-21 08:01:00,
2013-04-21 01:11:00,52.0,43.0,29.94,SW,217,0.0,-999.0,72,-99.99,,,-99.99,,2013-04-21 08:11:00,
2013-04-21 01:32:00,51.0,42.0,29.94,SW,217,0.0,-999.0,72,-99.99,,,-99.99,,2013-04-21 08:32:00,
2013-04-21 01:52:00,51.0,43.0,29.95,SW,217,0.0,-999.0,73,-99.99,,,-99.99,,2013-04-21 08:52:00,
2013-04-21 02:01:00,51.0,43.0,29.95,SW,217,0.0,-999.0,73,-99.99,,,-99.99,,2013-04-21 09:01:00,
2013-04-21 02:11:00,51.0,43.0,29.95,SW,217,0.0,-999.0,73,-99.99,,,-99.99,,2013-04-21 09:11:00,
2013-04-21 02:32:00,51.0,43.0,29.94,SW,217,0.0,-999.0,74,-99.99,,,-99.99,,2013-04-21 09:32:00,
2013-04-21 02:42:00,51.0,43.0,29.94,SW,217,0.0,-999.0,74,-99.99,,,-99.99,,2013-04-21 09:42:00,
2013-04-21 02:52:00,50.0,42.0,29.94,SW,217,0.0,-999.0,74,-99.99,,,-99.99,,2013-04-21 09:52:00,
2013-04-21 03:02:00,50.0,42.0,29.94,SW,217,0.0,-999.0,74,-99.99,,,-99.99,,2013-04-21 10:02:00,
2013-04-21 03:32:00,49.0,42.0,29.94,SW,217,0.0,-999.0,76,-99.99,,,-99.99,,2013-04-21 10:32:00,
2013-04-21 04:02:00,48.0,41.0,29.94,SW,217,0.0,-999.0,77,-99.99,,,-99.99,,2013-04-21 11:02:00,
2013-04-21 04:33:00,48.0,41.0,29.95,SW,217,0.0,-999.0,78,-99.99,,,-99.99,,2013-04-21 11:33:00,
2013-04-21 04:51:00,47.0,41.0,29.95,SW,217,0.0,-999.0,78,-99.99,,,-99.99,,2013-04-21 11:51:00,
2013-04-21 05:02:00,47.0,41.0,29.95,SW,217,0.0,-999.0,78,-99.99,,,-99.99,,2013-04-21 12:02:00,
2013-04-21 05:22:00,47.0,41.0,29.95,SW,217,0.0,-999.0,79,-99.99,,,-99.99,,2013-04-21 12:22:00,
2013-04-21 05:31:00,46.0,40.0,29.95,SW,217,0.0,-999.0,80,-99.99,,,-99.99,,2013-04-21 12:31:00,
2013-04-21 05:52:00,46.0,40.0,29.95,SW,217,0.0,-999.0,80,-99.99,,,-99.99,,2013-04-21 12:52:00,
2013-04-21 06:01:00,46.0,41.0,29.96,SW,217,0.0,-999.0,81,-99.99,,,-99.99,,2013-04-21 13:01:00,
2013-04-21 06:21:00,46.0,41.0,29.96,SW,217,0.0,-999.0,81,-99.99,,,-99.99,,2013-04-21 13:21:00,
2013-04-21 06:32:00,46.0,41.0,29.96,SW,217,0.0,-999.0,81,-99.99,,,-99.99,,2013-04-21 13:32:00,
2013-04-21 06:42:00,46.0,41.0,29.96,SW,217,0.0,-999.0,81,-99.99,,,-99.99,,2013-04-21 13:42:00,
2013-04-21 06:52:00,46.0,41.0,29.97,SW,217,0.0,-999.0,81,-99.99,,,-99.99,,2013-04-21 13:52:00,
2013-04-21 07:01:00,46.0,41.0,29.98,SW,217,0.0,-999.0,82,-99.99,,,-99.99,,2013-04-21 14:01:00,
2013-04-21 07:11:00,46.0,41.0,29.98,SW,217,0.0,-999.0,82,-99.99,,,-99.99,,2013-04-21 14:11:00,
2013-04-21 07:21:00,46.0,41.0,29.98,SW,217,0.0,-999.0,83,-99.99,,,-99.99,,2013-04-21 14:21:00,
2013-04-21 07:31:00,47.0,42.0,29.99,SE,128,0.0,-999.0,84,-99.99,,,-99.99,,2013-04-21 14:31:00,
2013-04-21 07:42:00,47.0,42.0,29.99,SE,128,0.0,-999.0,84,-99.99,,,-99.99,,2013-04-21 14:42:00,
2013-04-21 07:52:00,48.0,43.0,29.99,SW,220,0.0,-999.0,83,-99.99,,,-99.99,,2013-04-21 14:52:00,
2013-04-21 08:01:00,50.0,45.0,29.99,SW,220,0.0,-999.0,82,-99.99,,,-99.99,,2013-04-21 15:01:00,
2013-04-21 08:11:00,50.0,45.0,29.99,SW,220,0.0,-999.0,82,-99.99,,,-99.99,,2013-04-21 15:11:00,
2013-04-21 08:22:00,51.0,45.0,29.99,SW,220,0.0,-999.0,80,-99.99,,,-99.99,,2013-04-21 15:22:00,
2013-04-21 08:33:00,53.0,46.0,29.99,SW,220,0.0,-999.0,77,-99.99,,,-99.99,,2013-04-21 15:33:00,
2013-04-21 08:42:00,53.0,46.0,29.99,SW,220,0.0,-999.0,77,-99.99,,,-99.99,,2013-04-21 15:42:00,
2013-04-21 08:53:00,57.0,47.0,29.99,SW,220,0.0,-999.0,70,-99.99,,,-99.99,,2013-04-21 15:53:00,
2013-04-21 09:03:00,60.0,47.0,29.99,SW,219,0.0,-999.0,62,-99.99,,,-99.99,,2013-04-21 16:03:00,
2013-04-21 09:12:00,60.0,47.0,29.99,SW,219,0.0,-999.0,62,-99.99,,,-99.99,,2013-04-21 16:12:00,
2013-04-21 09:22:00,64.0,47.0,29.99,SW,220,0.0,-999.0,55,-99.99,,,-99.99,,2013-04-21 16:22:00,
2013-04-21 09:32:00,67.0,48.0,29.99,SW,220,0.0,-999.0,50,-99.99,,,-99.99,,2013-04-21 16:32:00,
2013-04-21 09:42:00,67.0,48.0,29.99,SW,220,0.0,-999.0,50,-99.99,,,-99.99,,2013-04-21 16:42:00,
2013-04-21 09:52:00,70.0,48.0,29.98,WNW,290,0.0,-999.0,45,-99.99,,,-99.99,,2013-04-21 16:52:00,
2013-04-21 10:01:00,73.0,47.0,29.98,WNW,301,0.0,-999.0,39,-99.99,,,-99.99,,2013-04-21 17:01:00,
2013-04-21 10:12:00,74.0,48.0,29.98,West,273,1.0,-999.0,40,-99.99,,,-99.99,,2013-04-21 17:12:00,
2013-04-21 10:22:00,74.0,48.0,29.98,West,273,1.0,-999.0,40,-99.99,,,-99.99,,2013-04-21 17:22:00,
2013-04-21 10:32:00,74.0,51.0,29.99,West,267,2.0,-999.0,45,-99.99,,,-99.99,,2013-04-21 17:32:00,
2013-04-21 10:41:00,74.0,51.0,29.99,West,267,2.0,-999.0,45,-99.99,,,-99.99,,2013-04-21 17:41:00,
2013-04-21 10:52:00,74.0,48.0,29.99,NW,315,2.0,-999.0,40,-99.99,,,-99.99,,2013-04-21 17:52:00,
2013-04-21 11:02:00,75.0,50.0,29.98,WNW,298,5.0,-999.0,41,-99.99,,,-99.99,,2013-04-21 18:02:00,
2013-04-21 11:11:00,75.0,50.0,29.98,WNW,298,5.0,-999.0,41,-99.99,,,-99.99,,2013-04-21 18:11:00,
2013-04-21 11:21:00,76.0,54.0,29.98,WSW,242,3.0,-999.0,46,-99.99,,,-99.99,,2013-04-21 18:21:00,
2013-04-21 11:32:00,77.0,52.0,29.98,SSW,192,2.0,-999.0,42,-99.99,,,-99.99,,2013-04-21 18:32:00,
2013-04-21 11:42:00,77.0,52.0,29.98,SSW,192,2.0,-999.0,42,-99.99,,,-99.99,,2013-04-21 18:42:00,
2013-04-21 11:52:00,77.0,50.0,29.98,West,269,2.0,-999.0,39,-99.99,,,-99.99,,2013-04-21 18:52:00,
2013-04-21 12:02:00,76.0,50.0,29.98,NW,306,6.0,-999.0,40,-99.99,,,-99.99,,2013-04-21 19:02:00,
2013-04-21 12:11:00,76.0,50.0,29.98,NW,306,6.0,-999.0,40,-99.99,,,-99.99,,2013-04-21 19:11:00,
2013-04-21 12:21:00,77.0,49.0,29.98,West,272,6.0,-999.0,38,-99.99,,,-99.99,,2013-04-21 19:21:00,
2013-04-21 12:31:00,77.0,46.0,29.97,WNW,293,7.0,-999.0,34,-99.99,,,-99.99,,2013-04-21 19:31:00,
2013-04-21 12:42:00,77.0,46.0,29.97,WNW,293,7.0,-999.0,34,-99.99,,,-99.99,,2013-04-21 19:42:00,
2013-04-21 12:52:00,78.0,47.0,29.97,WNW,297,6.0,-999.0,34,-99.99,,,-99.99,,2013-04-21 19:52:00,
2013-04-21 13:01:00,79.0,48.0,29.97,West,273,6.0,-999.0,34,-99.99,,,-99.99,,2013-04-21 20:01:00,
2013-04-21 13:11:00,79.0,48.0,29.97,West,273,6.0,-999.0,34,-99.99,,,-99.99,,2013-04-21 20:11:00,
2013-04-21 13:21:00,79.0,48.0,29.97,West,265,7.0,-999.0,34,-99.99,,,-99.99,,2013-04-21 20:21:00,
2013-04-21 13:31:00,79.0,48.0,29.96,West,270,7.0,-999.0,34,-99.99,,,-99.99,,2013-04-21 20:31:00,
2013-04-21 13:41:00,79.0,48.0,29.96,West,270,7.0,-999.0,34,-99.99,,,-99.99,,2013-04-21 20:41:00,
2013-04-21 13:52:00,79.0,46.0,29.96,WSW,257,7.0,-999.0,31,-99.99,,,-99.99,,2013-04-21 20:52:00,
2013-04-21 14:01:00,79.0,47.0,29.96,WSW,253,7.0,-999.0,32,-99.99,,,-99.99,,2013-04-21 21:01:00,
2013-04-21 14:12:00,79.0,47.0,29.96,NW,310,7.0,-999.0,32,-99.99,,,-99.99,,2013-04-21 21:12:00,
2013-04-21 14:21:00,79.0,47.0,29.96,NW,310,7.0,-999.0,32,-99.99,,,-99.99,,2013-04-21 21:21:00,
2013-04-21 14:32:00,79.0,46.0,29.96,SW,233,7.0,-999.0,31,-99.99,,,-99.99,,2013-04-21 21:32:00,
2013-04-21 14:43:00,79.0,46.0,29.96,SW,233,7.0,-999.0,31,-99.99,,,-99.99,,2013-04-21 21:43:00,
2013-04-21 14:53:00,79.0,45.0,29.96,WSW,258,7.0,-999.0,30,-99.99,,,-99.99,,2013-04-21 21:53:00,
2013-04-21 15:02:00,79.0,46.0,29.96,NW,306,6.0,-999.0,31,-99.99,,,-99.99,,2013-04-21 22:02:00,
2013-04-21 15:12:00,79.0,46.0,29.96,NW,306,6.0,-999.0,31,-99.99,,,-99.99,,2013-04-21 22:12:00,
2013-04-21 15:22:00,79.0,46.0,29.95,WNW,294,6.0,-999.0,31,-99.99,,,-99.99,,2013-04-21 22:22:00,
2013-04-21 15:32:00,80.0,48.0,29.95,NW,322,5.0,-999.0,33,-99.99,,,-99.99,,2013-04-21 22:32:00,
2013-04-21 15:42:00,80.0,48.0,29.95,NW,322,5.0,-999.0,33,-99.99,,,-99.99,,2013-04-21 22:42:00,
2013-04-21 15:52:00,79.0,46.0,29.94,West,273,6.0,-999.0,31,-99.99,,,-99.99,,2013-04-21 22:52:00,
2013-04-21 16:02:00,79.0,47.0,29.93,WNW,286,6.0,-999.0,32,-99.99,,,-99.99,,2013-04-21 23:02:00,
2013-04-21 16:12:00,79.0,47.0,29.93,WNW,286,6.0,-999.0,32,-99.99,,,-99.99,,2013-04-21 23:12:00,
2013-04-21 16:22:00,79.0,50.0,29.93,WNW,298,5.0,-999.0,36,-99.99,,,-99.99,,2013-04-21 23:22:00,
2013-04-21 16:32:00,79.0,50.0,29.93,WNW,299,4.0,-999.0,37,-99.99,,,-99.99,,2013-04-21 23:32:00,
2013-04-21 16:42:00,79.0,50.0,29.93,WNW,299,4.0,-999.0,37,-99.99,,,-99.99,,2013-04-21 23:42:00,
2013-04-21 16:52:00,79.0,51.0,29.93,WNW,295,3.0,-999.0,38,-99.99,,,-99.99,,2013-04-21 23:52:00,
2013-04-21 17:01:00,78.0,50.0,29.93,WNW,292,5.0,-999.0,38,-99.99,,,-99.99,,2013-04-22 00:01:00,
2013-04-21 17:11:00,78.0,50.0,29.93,WNW,292,5.0,-999.0,38,-99.99,,,-99.99,,2013-04-22 00:11:00,
2013-04-21 17:21:00,78.0,52.0,29.93,West,277,3.0,-999.0,40,-99.99,,,-99.99,,2013-04-22 00:21:00,
2013-04-21 17:31:00,78.0,50.0,29.93,West,265,2.0,-999.0,38,-99.99,,,-99.99,,2013-04-22 00:31:00,
2013-04-21 17:42:00,78.0,50.0,29.93,West,265,2.0,-999.0,38,-99.99,,,-99.99,,2013-04-22 00:42:00,
2013-04-21 17:51:00,77.0,52.0,29.93,WNW,288,2.0,-999.0,42,-99.99,,,-99.99,,2013-04-22 00:51:00,
2013-04-21 18:01:00,75.0,52.0,29.93,WNW,285,4.0,-999.0,45,-99.99,,,-99.99,,2013-04-22 01:01:00,
2013-04-21 18:11:00,75.0,52.0,29.93,WNW,285,4.0,-999.0,45,-99.99,,,-99.99,,2013-04-22 01:11:00,
2013-04-21 18:21:00,74.0,51.0,29.93,NW,306,4.0,-999.0,45,-99.99,,,-99.99,,2013-04-22 01:21:00,
2013-04-21 18:32:00,73.0,53.0,29.93,WNW,299,2.0,-999.0,50,-99.99,,,-99.99,,2013-04-22 01:32:00,
2013-04-21 18:41:00,73.0,53.0,29.93,WNW,299,2.0,-999.0,50,-99.99,,,-99.99,,2013-04-22 01:41:00,
2013-04-21 18:52:00,69.0,55.0,29.93,WNW,288,2.0,-999.0,60,-99.99,,,-99.99,,2013-04-22 01:52:00,
2013-04-21 19:01:00,68.0,54.0,29.94,WNW,293,0.0,-999.0,61,-99.99,,,-99.99,,2013-04-22 02:01:00,
2013-04-21 19:11:00,68.0,54.0,29.94,WNW,293,0.0,-999.0,61,-99.99,,,-99.99,,2013-04-22 02:11:00,
2013-04-21 19:21:00,66.0,53.0,29.94,WNW,286,1.0,-999.0,64,-99.99,,,-99.99,,2013-04-22 02:21:00,
2013-04-21 19:31:00,64.0,54.0,29.95,West,279,0.0,-999.0,70,-99.99,,,-99.99,,2013-04-22 02:31:00,
2013-04-21 19:41:00,64.0,54.0,29.95,West,279,0.0,-999.0,70,-99.99,,,-99.99,,2013-04-22 02:41:00,
2013-04-21 19:52:00,62.0,54.0,29.96,WSW,237,0.0,-999.0,75,-99.99,,,-99.99,,2013-04-22 02:52:00,
2013-04-21 20:01:00,61.0,54.0,29.96,WSW,238,0.0,-999.0,79,-99.99,,,-99.99,,2013-04-22 03:01:00,
2013-04-21 20:11:00,61.0,54.0,29.96,WSW,238,0.0,-999.0,79,-99.99,,,-99.99,,2013-04-22 03:11:00,
2013-04-21 20:22:00,60.0,54.0,29.97,WSW,238,0.0,-999.0,81,-99.99,,,-99.99,,2013-04-22 03:22:00,
2013-04-21 20:33:00,60.0,54.0,29.97,WSW,238,0.0,-999.0,81,-99.99,,,-99.99,,2013-04-22 03:33:00,
2013-04-21 20:42:00,60.0,54.0,29.97,WSW,238,0.0,-999.0,81,-99.99,,,-99.99,,2013-04-22 03:42:00,
2013-04-21 20:52:00,59.0,54.0,29.98,WSW,238,0.0,-999.0,83,-99.99,,,-99.99,,2013-04-22 03:52:00,
2013-04-21 21:02:00,58.0,53.0,29.98,WSW,238,0.0,-999.0,84,-99.99,,,-99.99,,2013-04-22 04:02:00,
2013-04-21 21:12:00,58.0,53.0,29.98,WSW,238,0.0,-999.0,84,-99.99,,,-99.99,,2013-04-22 04:12:00,
2013-04-21 21:23:00,57.0,53.0,29.99,WSW,238,0.0,-999.0,85,-99.99,,,-99.99,,2013-04-22 04:23:00,
2013-04-21 21:32:00,57.0,53.0,29.99,WSW,238,0.0,-999.0,86,-99.99,,,-99.99,,2013-04-22 04:32:00,
2013-04-21 21:43:00,57.0,53.0,29.99,WSW,238,0.0,-999.0,86,-99.99,,,-99.99,,2013-04-22 04:43:00,
2013-04-21 21:52:00,56.0,52.0,30.00,WSW,238,0.0,-999.0,86,-99.99,,,-99.99,,2013-04-22 04:52:00,
2013-04-21 22:02:00,56.0,53.0,30.00,WSW,238,0.0,-999.0,89,-99.99,,,-99.99,,2013-04-22 05:02:00,
2013-04-21 22:11:00,56.0,53.0,30.00,WSW,238,0.0,-999.0,89,-99.99,,,-99.99,,2013-04-22 05:11:00,
2013-04-21 22:22:00,56.0,53.0,30.00,WSW,244,0.0,-999.0,89,-99.99,,,-99.99,,2013-04-22 05:22:00,
2013-04-21 22:32:00,56.0,53.0,30.01,WSW,244,0.0,-999.0,90,-99.99,,,-99.99,,2013-04-22 05:32:00,
2013-04-21 22:42:00,56.0,53.0,30.01,WSW,244,0.0,-999.0,90,-99.99,,,-99.99,,2013-04-22 05:42:00,
2013-04-21 22:52:00,56.0,53.0,30.01,WSW,244,0.0,-999.0,90,-99.99,,,-99.99,,2013-04-22 05:52:00,
2013-04-21 23:02:00,56.0,53.0,30.01,WSW,244,0.0,-999.0,91,-99.99,,,-99.99,,2013-04-22 06:02:00,
2013-04-21 23:11:00,56.0,53.0,30.01,WSW,244,0.0,-999.0,91,-99.99,,,-99.99,,2013-04-22 06:11:00,
2013-04-21 23:21:00,55.0,52.0,30.01,WSW,244,0.0,-999.0,91,-99.99,,,-99.99,,2013-04-22 06:21:00,
2013-04-21 23:32:00,55.0,53.0,30.00,West,260,0.0,-999.0,92,-99.99,,,-99.99,,2013-04-22 06:32:00,
2013-04-21 23:41:00,55.0,53.0,30.00,West,260,0.0,-999.0,92,-99.99,,,-99.99,,2013-04-22 06:41:00,
2013-04-21 23:51:00,55.0,53.0,30.01,West,260,0.0,-999.0,92,-99.99,,,-99.99,,2013-04-22 06:51:00,